DMSP 5D-2 F13 DEB, 40612

Orbit data source: Space-Track

DMSP 5D-2 F13 DEB, 40612 is space debris in SSO originally from a launch on Fri, 24 Mar 1995 UTC launched from the Air Force Western Test Range (AFWTR). Debris objects in space refer to the collection of defunct objects orbiting the Earth. Examples of debris include non-operational satellites, rocket bodies, and fragments generated from explosions, collisions, or faulty payload assembly.

Loading next visibility...
Identifier
40612, 1995-015FK
Orbit
SSO
Country
Flag of USUS
Related business
Manufacturer
Unknown
Mission
Spacecraft
Bus & Motor
Unknown
Mass
Unknown
Launch date (UTC)
1995-03-24 (31 years ago)
Launch vehicle
Unknown
Launch site
Air Force Western Test Range (AFWTR)
Object type
Payload
Rocket body
Debris
Shape & HBR
Unknown shape, 0.1 m
Radar Cross Section
Medium (>0.1 m² and <1 m²)

Expand to show TLE details & history
Last TLE update: 2 days ago

TLE from 2 days ago
0 DMSP 5D-2 F13 DEB
1 40612U 95015FK  26171.35133384  .00003126  00000-0  10206-2 0  9993
2 40612  98.6761 209.6547 0005604  37.3555 322.8021 14.39310226579806
Epoch: 2026-06-20T08:25Z
TLE epoch observation values (Epoch: 2026-06-20T08:25:55.243Z)
Latitude
-0.00004°
Longitude
174.60732°
Altitude
760.534 km
Speed
7.476 km/s
True Right ascension
13h 58m 37s
True Declination
0° 00' 00"
Sunlit
Object was in full shadow at epoch
Visualization orbit readout
Latitude
Unknown
Longitude
Unknown
Altitude
Unknown
Speed
Unknown
Apparent Right ascension
Unknown
Apparent Declination
Unknown
Sunlit
N/A
Visualization observer readout
Local Sidereal Time
21:44:05
Azimuth
Unknown
Elevation
Unknown
Doppler factor
Unknown
Orbital elements
Apogee altitude
761.909 km
Perigee altitude
753.911 km
Semi-major axis
7,136.047 km
Eccentricity
0.00056
Inclination
98.6761°
RAAN
209.6547°
Arg. of periapsis
37.3555°
True anomaly
322.76325°
Mean anomaly
322.8021°
Eccentric anomaly
322.78268°
Mean motion
3.60045 °/min
Orbital period
99.99 mins
BSTAR
0.0010206

Documentation

Showing up to 5 results
|